Weather History for Bay City, TX

Change the Weather History Date:

Monday, November 14, 2011

  Actual Average (KLBX) Record (KLBX)
Temperature  
Mean Temperature 76 °F -  
Max Temperature 83 °F 69 °F 84 °F (2005)
Min Temperature 69 °F 53 °F 36 °F (2000)
Cooling Degree Days 11    
Growing Degree Days 26 (Base 50)    
Moisture  
Dew Point 70 °F    
Average Humidity 81    
Maximum Humidity 99    
Minimum Humidity 61    
Precipitation  
Precipitation 0.00 in - - ()
Sea Level Pressure  
Sea Level Pressure 29.88 in    
Wind  
Wind Speed 9 mph (SSE)    
Max Wind Speed 20 mph    
Max Gust Speed 25 mph    
Visibility 9 miles    
Events      
Averages and records for this station are not official NWS values.
T = Trace of Precipitation, MM = Missing Value Source: NWS Daily Summary

Daily Weather History Graph

Daily Weather History Graph

Search for Another Location

Airport:

Trip Planner

Search our weather history database for the weather conditions in past years. The results will help you decide how hot, cold, wet, or windy it might be!

Date:

Astronomy

Nov. 14, 2011 Rise Set
Actual Time 6:45 AM CST 5:29 PM CST
Civil Twilight 6:20 AM CST 5:54 PM CST
Nautical Twilight 5:52 AM CST 6:23 PM CST
Astronomical Twilight 5:24 AM CST 6:51 PM CST
Moon 8:42 PM CST (11/14) 9:58 AM CST (11/14)
Length of Visible Light 11h 33m
Length of Day
10h 43m
Waning Gibbous, 86% of the Moon is Illuminated
Nov 14
Waning Gibbous
Nov 18
Last Quarter
Nov 25
New
Dec 2
First Quarter
Dec 10
Full

Hourly Weather History & Observations

Time (CST) Temp. Heat Index Dew Point Humidity Pressure Visibility Wind Dir Wind Speed Gust Speed Precip Events Conditions
12:15 AM 73.2 °F - 71.2 °F 93% 29.93 in 7.0 mi South 5.8 mph - N/A   Unknown
12:35 AM 73.0 °F - 71.4 °F 95% 29.93 in 7.0 mi SSE 5.8 mph - N/A   Unknown
12:55 AM 72.5 °F - 71.1 °F 95% 29.93 in 7.0 mi South 3.5 mph - N/A   Unknown
1:15 AM 71.8 °F - 70.7 °F 96% 29.93 in 7.0 mi Calm Calm - N/A   Unknown
1:35 AM 70.9 °F - 70.2 °F 98% 29.93 in 5.0 mi Calm Calm - N/A   Mist
1:55 AM 70.2 °F - 69.8 °F 99% 29.93 in 5.0 mi SE 3.5 mph - N/A   Mist
2:15 AM 69.8 °F - 69.4 °F 99% 29.92 in 5.0 mi SE 3.5 mph - N/A   Mist
2:35 AM 69.6 °F - 69.3 °F 99% 29.92 in 5.0 mi SE 4.6 mph - N/A   Mist
2:55 AM 70.0 °F - 69.8 °F 99% 29.91 in 7.0 mi SSE 4.6 mph - N/A   Unknown
3:15 AM 69.8 °F - 68.0 °F 94% 29.91 in 7.0 mi SE 6.9 mph - N/A   Unknown
3:35 AM 70.5 °F - 69.1 °F 95% 29.91 in 10.0 mi SE 6.9 mph - N/A   Unknown
3:55 AM 71.4 °F - 68.9 °F 92% 29.90 in 10.0 mi SSE 8.1 mph - N/A   Unknown
4:15 AM 72.1 °F - 68.9 °F 89% 29.90 in 10.0 mi SSE 8.1 mph - N/A   Unknown
4:35 AM 72.5 °F - 68.9 °F 88% 29.89 in 10.0 mi SE 8.1 mph - N/A   Unknown
4:55 AM 72.7 °F - 68.9 °F 88% 29.89 in 10.0 mi SE 10.4 mph - N/A   Unknown
5:15 AM 72.5 °F - 68.7 °F 88% 29.89 in 10.0 mi SE 8.1 mph - N/A   Unknown
5:35 AM 72.1 °F - 68.5 °F 88% 29.90 in 10.0 mi SSE 6.9 mph - N/A   Unknown
5:55 AM 71.6 °F - 68.0 °F 88% 29.90 in 10.0 mi SSE 6.9 mph - N/A   Unknown
6:15 AM 72.5 °F - 68.5 °F 87% 29.90 in 10.0 mi SE 8.1 mph - N/A   Unknown
6:35 AM 72.5 °F - 68.9 °F 88% 29.90 in 10.0 mi SE 5.8 mph - N/A   Unknown
6:55 AM 71.6 °F - 68.0 °F 88% 29.90 in 10.0 mi SE 8.1 mph - N/A   Unknown
7:15 AM 71.6 °F - 69.8 °F 94% 29.90 in 10.0 mi SE 6.9 mph - N/A   Unknown
7:35 AM 73.2 °F - 70.0 °F 90% 29.90 in 10.0 mi ESE 5.8 mph - N/A   Unknown
7:55 AM 74.3 °F - 70.7 °F 88% 29.91 in 10.0 mi SE 9.2 mph - N/A   Unknown
8:15 AM 75.2 °F - 71.6 °F 89% 29.91 in 10.0 mi SE 10.4 mph - N/A   Unknown
8:35 AM 77.2 °F - 70.9 °F 81% 29.92 in 10.0 mi SE 10.4 mph 16.1 mph N/A   Unknown
8:55 AM 77.9 °F - 70.7 °F 78% 29.92 in 10.0 mi SSE 10.4 mph - N/A   Unknown
9:15 AM 79.3 °F - 70.9 °F 75% 29.93 in 10.0 mi SSE 16.1 mph - N/A   Unknown
9:35 AM 79.9 °F - 70.7 °F 73% 29.93 in 10.0 mi SSE 15.0 mph 19.6 mph N/A   Unknown
9:55 AM 79.7 °F - 70.3 °F 73% 29.93 in 10.0 mi SSE 12.7 mph 20.7 mph N/A   Unknown
10:15 AM 78.8 °F - 69.8 °F 74% 29.93 in 10.0 mi SSE 17.3 mph 20.7 mph N/A   Unknown
10:35 AM 80.6 °F 84.1 °F 70.5 °F 71% 29.93 in 10.0 mi South 13.8 mph - N/A   Unknown
10:55 AM 79.5 °F - 70.7 °F 74% 29.92 in 7.0 mi SSE 11.5 mph 17.3 mph N/A   Unknown
11:15 AM 79.3 °F - 71.1 °F 76% 29.91 in 10.0 mi South 15.0 mph 18.4 mph N/A   Unknown
11:35 AM 81.3 °F 85.2 °F 70.7 °F 70% 29.91 in 10.0 mi SSE 17.3 mph 25.3 mph N/A   Unknown
11:55 AM 80.6 °F 83.9 °F 69.8 °F 70% 29.90 in 10.0 mi SSE 16.1 mph - N/A   Unknown
12:15 PM 82.2 °F 86.0 °F 70.0 °F 66% 29.89 in 10.0 mi SSE 15.0 mph 20.7 mph N/A   Unknown
12:35 PM 82.4 °F 86.3 °F 70.0 °F 66% 29.88 in 10.0 mi SSE 18.4 mph 25.3 mph N/A   Unknown
12:55 PM 80.6 °F 83.9 °F 69.8 °F 70% 29.86 in 10.0 mi SSE 19.6 mph - N/A   Unknown
1:15 PM 82.6 °F 86.4 °F 69.6 °F 65% 29.85 in 10.0 mi South 19.6 mph 23.0 mph N/A   Unknown
1:35 PM 82.6 °F 86.1 °F 69.1 °F 64% 29.84 in 10.0 mi SSE 16.1 mph 23.0 mph N/A   Unknown
1:55 PM 83.7 °F 87.2 °F 69.1 °F 61% 29.83 in 10.0 mi SSE 18.4 mph 24.2 mph N/A   Unknown
2:15 PM 83.3 °F 86.9 °F 69.1 °F 62% 29.83 in 10.0 mi SSE 17.3 mph 23.0 mph N/A   Unknown
2:35 PM 82.6 °F 86.1 °F 69.1 °F 64% 29.82 in 10.0 mi SSE 16.1 mph 20.7 mph N/A   Unknown
2:55 PM 81.3 °F 84.5 °F 68.9 °F 66% 29.82 in 10.0 mi SE 15.0 mph 23.0 mph N/A   Unknown
3:15 PM 81.5 °F 84.6 °F 68.9 °F 65% 29.81 in 10.0 mi SSE 15.0 mph - N/A   Unknown
3:35 PM 82.4 °F 86.1 °F 69.4 °F 65% 29.81 in 10.0 mi SSE 17.3 mph 21.9 mph N/A   Unknown
3:55 PM 81.7 °F 85.2 °F 69.6 °F 67% 29.81 in 10.0 mi SSE 13.8 mph 21.9 mph N/A   Unknown
4:15 PM 81.1 °F 84.5 °F 69.8 °F 68% 29.80 in 10.0 mi SE 15.0 mph - N/A   Unknown
4:35 PM 80.2 °F 83.3 °F 69.6 °F 70% 29.80 in 10.0 mi SE 12.7 mph - N/A   Unknown
4:55 PM 79.2 °F - 70.0 °F 73% 29.80 in 10.0 mi SE 12.7 mph 17.3 mph N/A   Unknown
5:15 PM 77.9 °F - 70.2 °F 77% 29.80 in 10.0 mi SE 10.4 mph - N/A   Unknown
5:35 PM 77.0 °F - 70.2 °F 79% 29.81 in 10.0 mi SE 12.7 mph - N/A   Unknown
5:55 PM 76.5 °F - 70.3 °F 81% 29.80 in 10.0 mi SE 11.5 mph 17.3 mph N/A   Unknown
6:15 PM 75.7 °F - 70.3 °F 83% 29.81 in 10.0 mi ESE 11.5 mph - N/A   Unknown
6:35 PM 75.2 °F - 70.5 °F 85% 29.81 in 10.0 mi SE 10.4 mph - N/A   Unknown
6:55 PM 75.2 °F - 70.7 °F 86% 29.82 in 10.0 mi SE 9.2 mph - N/A   Unknown
7:15 PM 75.0 °F - 70.7 °F 86% 29.82 in 10.0 mi SE 10.4 mph 16.1 mph N/A   Unknown
7:35 PM 75.4 °F - 70.9 °F 86% 29.82 in 10.0 mi SE 13.8 mph - N/A   Unknown
7:55 PM 75.4 °F - 70.7 °F 85% 29.82 in 10.0 mi SE 9.2 mph - N/A   Unknown
8:15 PM 75.0 °F - 70.7 °F 86% 29.83 in 10.0 mi SE 9.2 mph - N/A   Unknown
8:35 PM 75.2 °F - 70.9 °F 86% 29.83 in 10.0 mi SE 8.1 mph - N/A   Unknown
8:55 PM 75.6 °F - 71.1 °F 86% 29.84 in 10.0 mi SE 9.2 mph - N/A   Unknown
9:15 PM 75.7 °F - 70.9 °F 85% 29.84 in 10.0 mi SE 10.4 mph - N/A   Unknown
9:35 PM 75.6 °F - 70.9 °F 85% 29.84 in 10.0 mi SE 11.5 mph 17.3 mph N/A   Unknown
9:55 PM 75.2 °F - 70.9 °F 86% 29.83 in 10.0 mi ESE 10.4 mph 16.1 mph N/A   Unknown
10:15 PM 74.8 °F - 71.2 °F 88% 29.82 in 10.0 mi ESE 11.5 mph 17.3 mph N/A   Unknown
10:35 PM 73.4 °F - 71.6 °F 94% 29.82 in 10.0 mi ESE 10.4 mph - N/A   Unknown
10:55 PM 74.5 °F - 72.0 °F 92% 29.81 in 10.0 mi SE 11.5 mph - N/A   Unknown
11:15 PM 74.5 °F - 72.1 °F 92% 29.81 in 10.0 mi ESE 10.4 mph - N/A   Unknown
11:35 PM 74.5 °F - 72.3 °F 93% 29.81 in 10.0 mi SE 11.5 mph - N/A   Unknown
11:55 PM 74.7 °F - 72.5 °F 93% 29.81 in 10.0 mi SE 9.2 mph - N/A   Unknown